Location: New Frontier Mobile Home Park
(32.8448°N, 116.9675°W)
Time: 23:08:53
(UTC+00:00)

SL-8 Rocket - Pass Details

Date: 14 July 2020
Orbit: 957 x 990 km, 82.9° (Epoch: 05 August)

Event Time Altitude Azimuth Distance (km) Brightness Sun altitude
Exits shadow 06:17:09 77° 7° (N) 984 3.9 -30.9°
Drops below altitude 10° 06:22:50 10° 6° (N) 2,693 7.0 -31.4°
Sets 06:25:20 0° 6° (N) 3,642 7.8 -31.6°
